Stations météo

réclame
Mon MeteoGroup
Cap Corse, France (7785): Température de l'air & dewpoint: 10.07.2019 04:00:00 - 16.07.2019 04:00:00 (CEST)Cap Corse, France (7785): Vitesse du vent & gusts: 10.07.2019 04:00:00 - 16.07.2019 04:00:00 (CEST)Cap Corse, France (7785): Direction du vent: 10.07.2019 04:00:00 - 16.07.2019 04:00:00 (CEST)Cap Corse, France (7785): reduced air pressure: 10.07.2019 04:00:00 - 16.07.2019 04:00:00 (CEST)Cap Corse, France (7785): visibility: 10.07.2019 04:00:00 - 16.07.2019 04:00:00 (CEST)Cap Corse, France (7785): Quantités de précipitations: 10.07.2019 04:00:00 - 16.07.2019 04:00:00 (CEST)
Date & Time tt [°C] td [°C] ff [km/h] ff [knt] fx [km/h] fx [knt] dd ppp [hPa] vv [km] rr [mm]
16.07.2019 04:00:00 21,8 15,6 40 22 70 38 ENE 1011,0 - 0,0
16.07.2019 03:00:00 21,8 15,4 48 26 70 38 ENE 1010,7 - 0,0
16.07.2019 02:00:00 21,5 15,8 46 25 68 37 ENE 1010,4 - 0,0
16.07.2019 01:00:00 21,4 16,1 55 30 69 37 ENE 1010,1 - 0,0
16.07.2019 00:00:00 20,6 16,6 50 27 78 42 E 1009,9 - 0,0
15.07.2019 23:00:00 21,2 16,6 61 33 81 44 ENE 1008,8 - 0,0
15.07.2019 22:00:00 20,6 16,6 65 35 98 53 ENE 1008,0 - 0,0
15.07.2019 21:00:00 18,8 16,4 68 37 93 50 ENE 1006,3 - 3,3
15.07.2019 20:00:00 18,3 16,8 71 39 114 62 ENE 1006,4 - -
15.07.2019 19:00:00 18,8 17,5 70 38 105 57 ENE 1004,8 - 1,0
15.07.2019 18:00:00 19,2 17,9 66 36 103 56 E 1005,3 - 0,2
15.07.2019 17:00:00 19,4 17,9 67 36 98 53 ENE 1005,3 10 0,0
15.07.2019 16:00:00 20,6 18,9 55 30 74 40 ENE 1004,9 - -
15.07.2019 15:00:00 20,4 18,7 45 25 71 38 E 1005,3 - 0,0
15.07.2019 14:00:00 21,3 18,7 44 24 68 37 ENE 1004,9 10 0,0
15.07.2019 13:00:00 21,6 19,9 32 17 67 36 SE 1004,0 - 0,0
15.07.2019 12:00:00 19,3 18,8 41 22 72 39 ESE 1004,3 - -
15.07.2019 11:00:00 18,9 18,2 45 24 69 38 ESE 1004,9 2,0 -
15.07.2019 10:00:00 21,5 19,4 40 22 - - ESE 1004,6 - -
15.07.2019 09:00:00 23,4 19,1 32 18 60 32 ESE 1004,7 - 0,0
15.07.2019 08:00:00 24,4 18,8 18 10 37 20 E 1004,5 10 0,0
15.07.2019 07:00:00 22,9 15,7 26 14 47 26 SE 1004,8 - 0,0
15.07.2019 06:00:00 21,6 17,4 24 13 42 23 SE 1004,9 - 0,0
15.07.2019 05:00:00 21,1 15,2 11 6 53 28 WSW 1005,1 15 0,0
15.07.2019 04:00:00 20,9 15,2 31 17 59 32 SSE 1005,4 - 3,3
15.07.2019 03:00:00 19,4 17,4 49 26 89 48 SW 1007,1 - -
15.07.2019 02:00:00 25,1 15,7 20 11 28 15 SSE 1006,0 - 0,0
15.07.2019 01:00:00 25,6 18,5 - - 28 15 - 1006,8 - 0,0
15.07.2019 00:00:00 25,4 17,8 18 10 31 17 SSE 1007,1 - 0,0
14.07.2019 23:00:00 26,4 14,5 15 8 38 21 ESE 1007,4 - 0,0
14.07.2019 22:00:00 28,0 6,1 27 14 46 25 SSE 1007,2 - 0,0
14.07.2019 21:00:00 27,6 11,2 13 7 31 17 SSE 1007,3 - 0,0
14.07.2019 20:00:00 27,7 18,4 13 7 29 16 W 1007,3 - 0,0
14.07.2019 19:00:00 28,2 19,7 12 7 28 15 W 1007,6 - 0,0
14.07.2019 18:00:00 30,5 11,9 16 9 45 24 SSE 1007,8 - 0,0
14.07.2019 17:00:00 30,7 12,6 30 16 51 28 SE 1008,2 25 0,0
14.07.2019 16:00:00 30,5 15,8 26 14 50 27 SE 1008,7 - 0,0
14.07.2019 15:00:00 30,2 19,6 29 15 58 31 ESE 1008,3 - 0,0
14.07.2019 14:00:00 29,9 19,6 34 18 51 28 ESE 1008,8 30 0,0
14.07.2019 13:00:00 30,1 18,2 27 14 44 24 ESE 1009,4 - 0,0
14.07.2019 12:00:00 28,3 22,5 13 7 23 12 W 1009,8 - 0,0
14.07.2019 11:00:00 28,9 19,2 11 6 37 20 WNW 1009,9 20 0,0
14.07.2019 10:00:00 29,8 18,6 22 12 44 24 ESE 1009,8 - 0,0
14.07.2019 09:00:00 28,7 19,1 26 14 42 23 ESE 1009,5 - 0,0
14.07.2019 08:00:00 27,1 20,7 22 12 40 22 ESE 1009,4 30 0,0
14.07.2019 07:00:00 25,7 19,8 26 14 42 23 SE 1009,1 - 0,0
14.07.2019 06:00:00 23,7 19,2 20 11 32 17 ESE 1009,4 - 0,0
14.07.2019 05:00:00 23,7 20,0 17 9 22 12 ESE 1009,5 15 0,0
14.07.2019 04:00:00 23,0 19,8 3 1 7 4 E 1010,2 - 0,0
14.07.2019 03:00:00 22,4 20,3 5 3 9 5 ESE 1010,5 - 0,0
14.07.2019 02:00:00 22,8 20,1 6 4 12 6 W 1011,0 - 0,0
14.07.2019 01:00:00 23,4 20,1 5 3 12 7 W 1011,1 - 0,0
14.07.2019 00:00:00 23,4 15,2 8 5 11 6 W 1011,2 - 0,0
13.07.2019 23:00:00 24,8 14,6 2 1 11 6 NNE 1010,6 - 0,0
13.07.2019 22:00:00 26,2 15,0 11 6 31 17 S 1009,6 - 0,0
13.07.2019 21:00:00 25,8 19,4 13 7 35 19 WSW 1009,0 - 0,0
13.07.2019 20:00:00 27,2 20,5 15 8 37 20 W 1008,7 - 0,0
13.07.2019 19:00:00 27,2 22,6 19 10 44 24 W 1008,6 - 0,0
13.07.2019 18:00:00 27,2 22,8 27 15 48 26 WSW 1008,4 - 0,0
13.07.2019 17:00:00 27,9 22,8 27 14 42 23 WSW 1008,5 18 0,0
13.07.2019 16:00:00 28,7 22,4 30 16 44 24 W 1008,4 - 0,0
13.07.2019 15:00:00 28,9 22,2 24 13 44 24 W 1009,0 - 0,0
13.07.2019 14:00:00 28,4 20,7 36 19 51 28 W 1009,1 20 0,0
13.07.2019 13:00:00 28,3 21,3 32 17 52 28 WSW 1009,2 - 0,0
13.07.2019 12:00:00 27,5 22,0 38 20 58 32 W 1009,0 - 0,0
13.07.2019 11:00:00 27,1 21,4 36 19 64 35 WSW 1009,0 15 0,0
13.07.2019 10:00:00 27,1 21,2 35 19 56 30 WSW 1008,5 - 0,0
13.07.2019 09:00:00 26,1 22,0 35 19 55 30 W 1008,6 - 0,0
13.07.2019 08:00:00 26,5 20,8 39 21 53 28 W 1008,3 15 0,0
13.07.2019 07:00:00 26,4 19,5 39 21 69 37 WSW 1008,1 - 0,0
13.07.2019 06:00:00 26,3 19,4 39 21 71 39 W 1007,7 - 0,0
13.07.2019 05:00:00 26,4 19,8 36 20 69 37 WSW 1008,3 15 0,0
13.07.2019 04:00:00 26,5 19,9 23 13 61 33 SW 1009,0 - 0,0
13.07.2019 03:00:00 27,0 18,3 32 17 71 39 WSW 1009,1 - 0,0
13.07.2019 02:00:00 27,1 17,3 31 17 63 34 SW 1009,3 - 0,0
13.07.2019 01:00:00 27,3 16,9 28 15 62 33 SW 1010,0 - 0,0
13.07.2019 00:00:00 27,2 17,1 25 14 56 31 WSW 1010,7 - 0,0
12.07.2019 23:00:00 26,7 18,3 29 16 57 31 WSW 1010,7 - 0,0
12.07.2019 22:00:00 26,2 19,8 28 15 55 30 WSW 1010,6 - 0,0
12.07.2019 21:00:00 25,5 21,8 29 16 64 35 WSW 1010,6 - 0,0
12.07.2019 20:00:00 26,3 22,6 40 22 68 37 WSW 1010,5 - 0,0
12.07.2019 19:00:00 27,1 22,3 39 21 70 38 W 1010,5 - 0,0
12.07.2019 18:00:00 27,7 22,4 42 23 63 34 W 1010,2 - 0,0
12.07.2019 17:00:00 28,1 22,8 31 17 49 27 WSW 1010,8 15 0,0
12.07.2019 16:00:00 27,9 23,1 25 14 37 20 W 1011,5 - 0,0
12.07.2019 15:00:00 27,3 22,3 26 14 35 19 W 1011,7 - 0,0
12.07.2019 14:00:00 26,7 21,5 8 5 28 15 N 1012,0 15 0,0
12.07.2019 13:00:00 28,1 20,4 9 5 28 15 N 1012,1 - 0,0
12.07.2019 12:00:00 27,0 20,8 14 8 23 12 E 1012,2 - 0,0
12.07.2019 11:00:00 28,3 19,5 10 6 22 12 W 1012,2 15 0,0
12.07.2019 10:00:00 27,8 19,3 13 7 24 13 W 1012,0 - 0,0
12.07.2019 09:00:00 26,9 19,5 4 2 10 6 NW 1012,5 - 0,0
12.07.2019 08:00:00 26,8 19,2 3 2 13 7 ENE 1011,9 15 0,0
12.07.2019 07:00:00 24,1 19,8 10 6 18 10 SE 1011,7 - 0,0
12.07.2019 06:00:00 24,3 20,2 18 10 47 25 WSW 1011,6 - 0,0
12.07.2019 05:00:00 24,7 20,6 26 14 50 27 WSW 1011,4 15 0,0
12.07.2019 04:00:00 24,7 21,4 25 13 42 23 W 1011,5 - 0,0
12.07.2019 03:00:00 24,5 21,2 17 9 26 14 WSW 1011,9 - 0,0
12.07.2019 02:00:00 24,8 21,1 12 7 29 16 WSW 1012,2 - 0,0
12.07.2019 01:00:00 25,1 21,4 18 10 29 15 W 1012,4 - 0,0
12.07.2019 00:00:00 24,6 21,7 10 5 18 10 WSW 1012,6 - 0,0
11.07.2019 23:00:00 24,9 21,8 8 4 14 8 W 1012,9 - 0,0
11.07.2019 22:00:00 25,4 21,5 8 5 13 7 W 1012,4 - 0,0
11.07.2019 21:00:00 25,4 20,6 6 3 12 6 NW 1012,0 - 0,0
11.07.2019 20:00:00 26,0 21,2 5 3 14 8 N 1011,9 - 0,0
11.07.2019 19:00:00 27,2 21,5 5 3 14 8 W 1011,7 - 0,0
11.07.2019 18:00:00 27,0 21,7 7 4 12 7 W 1012,2 - 0,0
11.07.2019 17:00:00 27,9 20,5 10 5 19 11 W 1013,0 18 0,0
11.07.2019 16:00:00 29,0 20,2 13 7 21 11 W 1012,9 - 0,0
11.07.2019 15:00:00 28,0 20,3 16 8 23 12 W 1013,1 - 0,0
11.07.2019 14:00:00 29,4 20,0 12 6 18 10 W 1013,2 18 0,0
11.07.2019 13:00:00 28,2 19,7 15 8 21 11 WNW 1013,5 - 0,0
11.07.2019 12:00:00 28,7 20,2 15 8 19 10 W 1013,4 - 0,0
11.07.2019 11:00:00 28,6 19,8 12 7 22 12 W 1013,3 18 0,0
11.07.2019 10:00:00 28,4 19,6 7 4 30 16 NW 1013,3 - 0,0
11.07.2019 09:00:00 28,4 17,3 13 7 26 14 ESE 1013,3 - 0,0
11.07.2019 08:00:00 26,8 18,1 7 4 12 7 NE 1013,2 15 0,0
11.07.2019 07:00:00 25,7 19,8 5 3 15 8 E 1013,0 - 0,0
11.07.2019 06:00:00 24,0 18,4 10 5 37 20 S 1012,6 - 0,0
11.07.2019 05:00:00 24,4 19,5 22 12 29 16 SSE 1012,6 15 0,0
11.07.2019 04:00:00 23,5 19,8 8 4 15 8 ESE 1012,9 - 0,0
11.07.2019 03:00:00 24,3 20,6 10 5 19 11 SSW 1013,0 - 0,0
11.07.2019 02:00:00 24,2 19,9 6 3 14 8 ESE 1013,1 - 0,0
11.07.2019 01:00:00 23,7 19,4 7 4 10 5 E 1013,0 - 0,0
11.07.2019 00:00:00 23,4 17,6 3 2 8 5 WSW 1012,7 - 0,0
10.07.2019 23:00:00 23,8 17,5 3 2 12 7 W 1012,5 - 0,0
10.07.2019 22:00:00 24,5 20,2 9 5 18 10 WSW 1012,1 - 0,0
10.07.2019 21:00:00 25,6 20,4 14 8 26 14 W 1011,2 - 0,0
10.07.2019 20:00:00 26,9 21,0 20 11 26 14 W 1010,8 - 0,0
10.07.2019 19:00:00 28,1 20,4 18 10 31 17 W 1010,5 - 0,0
10.07.2019 18:00:00 28,9 19,2 17 9 33 18 W 1010,5 - 0,0
10.07.2019 17:00:00 28,9 21,7 18 10 30 16 W 1010,3 - 0,0
10.07.2019 16:00:00 28,6 21,6 16 8 22 12 W 1010,0 - 0,0
10.07.2019 15:00:00 29,2 21,7 17 9 28 15 NW 1009,9 - 0,0
10.07.2019 14:00:00 29,1 22,6 21 11 28 15 NW 1009,8 15 0,0
10.07.2019 13:00:00 29,0 21,0 18 10 29 15 W 1009,8 - 0,0
10.07.2019 12:00:00 28,2 21,2 13 7 34 19 W 1009,6 - 0,0
10.07.2019 11:00:00 27,5 19,8 17 9 44 24 W 1008,8 12 0,0
10.07.2019 10:00:00 - - 19 11 39 21 W - - -
10.07.2019 09:00:00 26,3 24,2 29 16 - - W 1007,6 - -
10.07.2019 08:00:00 25,7 24,1 34 18 45 24 WSW 1007,5 12 0,0
10.07.2019 07:00:00 25,6 24,0 29 16 53 29 W 1007,3 - 0,0
10.07.2019 06:00:00 25,4 22,7 32 17 75 40 WSW 1007,1 - 0,0
10.07.2019 05:00:00 25,7 23,0 39 21 66 36 WSW 1007,1 12 0,0
10.07.2019 04:00:00 25,6 23,8 40 22 66 36 W 1007,3 - 0,0

tt = Température de l'air
td = dewpoint
ff = Vitesse du vent
fx = gusts
dd = Direction du vent
ppp = reduced air pressure
vv = visibility
rr = Quantités de précipitations

stations d'obs. à proximité